datetime,flow
1927-10-01,4000.0
1927-10-02,3100.0
1927-10-03,3200.0
1927-10-04,1700.0
1927-10-05,3200.0
1927-10-06,3800.0
1927-10-07,3200.0
1927-10-08,3000.0
1927-10-09,3400.0
1927-10-10,2700.0
1927-10-11,2800.0
1927-10-12,3160.0
1927-10-13,3560.0
1927-10-14,3720.0
1927-10-15,3640.0
1927-10-16,3480.0
1927-10-17,2570.0
1927-10-18,2430.0
1927-10-19,3000.0
1927-10-20,3000.0
1927-10-21,3160.0
1927-10-22,3240.0
1927-10-23,2360.0
1927-10-24,1920.0
1927-10-25,3000.0
1927-10-26,3900.0
1927-10-27,3990.0
1927-10-28,3900.0
1927-10-29,3560.0
1927-10-30,3160.0
1927-10-31,2430.0
1927-11-01,3160.0
1927-11-02,3720.0
1927-11-03,3720.0
1927-11-04,3900.0
1927-11-05,2920.0
1927-11-06,2780.0
1927-11-07,3000.0
1927-11-08,3560.0
1927-11-09,10900.0
1927-11-10,9600.0
1927-11-11,6900.0
1927-11-12,6300.0
1927-11-13,5900.0
1927-11-14,5800.0
1927-11-15,6000.0
1927-11-16,7000.0
1927-11-17,7360.0
1927-11-18,6260.0
1927-11-19,6260.0
1927-11-20,8240.0
1927-11-21,7580.0
1927-11-22,6920.0
1927-11-23,6260.0
1927-11-24,5640.0
1927-11-25,5440.0
1927-11-26,12500.0
1927-11-27,9420.0
1927-11-28,13000.0
1927-11-29,14500.0
1927-11-30,10900.0
1927-12-01,8460.0
1927-12-02,7580.0
1927-12-03,6920.0
1927-12-04,6260.0
1927-12-05,4640.0
1927-12-06,5240.0
1927-12-07,5240.0
1927-12-08,5040.0
1927-12-09,5140.0
1927-12-10,5340.0
1927-12-11,5140.0
1927-12-12,3720.0
1927-12-13,5440.0
1927-12-14,6040.0
1927-12-15,5440.0
1927-12-16,5240.0
1927-12-17,5140.0
1927-12-18,4840.0
1927-12-19,3400.0
1927-12-20,4170.0
1927-12-21,4440.0
1927-12-22,4350.0
1927-12-23,4080.0
1927-12-24,4170.0
1927-12-25,3720.0
1927-12-26,2780.0
1927-12-27,2710.0
1927-12-28,4640.0
1927-12-29,4640.0
1927-12-30,4350.0
1927-12-31,4540.0
1928-01-01,4540.0
1928-01-02,5840.0
1928-01-03,8940.0
1928-01-04,11600.0
1928-01-05,9900.0
1928-01-06,10400.0
1928-01-07,9180.0
1928-01-08,8460.0
1928-01-09,6700.0
1928-01-10,7360.0
1928-01-11,7140.0
1928-01-12,6920.0
1928-01-13,7580.0
1928-01-14,8940.0
1928-01-15,7800.0
1928-01-16,6040.0
1928-01-17,5840.0
1928-01-18,5640.0
1928-01-19,5840.0
1928-01-20,5440.0
1928-01-21,5240.0
1928-01-22,5640.0
1928-01-23,5140.0
1928-01-24,5640.0
1928-01-25,5840.0
1928-01-26,5840.0
1928-01-27,6040.0
1928-01-28,6700.0
1928-01-29,11800.0
1928-01-30,15200.0
1928-01-31,12800.0
1928-02-01,11600.0
1928-02-02,10600.0
1928-02-03,11300.0
1928-02-04,10600.0
1928-02-05,10400.0
1928-02-06,9180.0
1928-02-07,9180.0
1928-02-08,8700.0
1928-02-09,8240.0
1928-02-10,7800.0
1928-02-11,6920.0
1928-02-12,6260.0
1928-02-13,5640.0
1928-02-14,6040.0
1928-02-15,6260.0
1928-02-16,6040.0
1928-02-17,5840.0
1928-02-18,5040.0
1928-02-19,4840.0
1928-02-20,4170.0
1928-02-21,5040.0
1928-02-22,5240.0
1928-02-23,4440.0
1928-02-24,4440.0
1928-02-25,5440.0
1928-02-26,4740.0
1928-02-27,4170.0
1928-02-28,4740.0
1928-02-29,6480.0
1928-03-01,6260.0
1928-03-02,6040.0
1928-03-03,6150.0
1928-03-04,6260.0
1928-03-05,5440.0
1928-03-06,6260.0
1928-03-07,6920.0
1928-03-08,7800.0
1928-03-09,10400.0
1928-03-10,9900.0
1928-03-11,10400.0
1928-03-12,11100.0
1928-03-13,11100.0
1928-03-14,9900.0
1928-03-15,9420.0
1928-03-16,9420.0
1928-03-17,8460.0
1928-03-18,9180.0
1928-03-19,9420.0
1928-03-20,9420.0
1928-03-21,9420.0
1928-03-22,11100.0
1928-03-23,14200.0
1928-03-24,13300.0
1928-03-25,12800.0
1928-03-26,31800.0
1928-03-27,50100.0
1928-03-28,35300.0
1928-03-29,26700.0
1928-03-30,22200.0
1928-03-31,20400.0
1928-04-01,21700.0
1928-04-02,20700.0
1928-04-03,20400.0
1928-04-04,18100.0
1928-04-05,17300.0
1928-04-06,17800.0
1928-04-07,18100.0
1928-04-08,18900.0
1928-04-09,19400.0
1928-04-10,17800.0
1928-04-11,17600.0
1928-04-12,17800.0
1928-04-13,16500.0
1928-04-14,15700.0
1928-04-15,16000.0
1928-04-16,19100.0
1928-04-17,18100.0
1928-04-18,17300.0
1928-04-19,16500.0
1928-04-20,15700.0
1928-04-21,15000.0
1928-04-22,15000.0
1928-04-23,16800.0
1928-04-24,15500.0
1928-04-25,15000.0
1928-04-26,14700.0
1928-04-27,14700.0
1928-04-28,14500.0
1928-04-29,14700.0
1928-04-30,14500.0
1928-05-01,15200.0
1928-05-02,14200.0
1928-05-03,12800.0
1928-05-04,12500.0
1928-05-05,12500.0
1928-05-06,12800.0
1928-05-07,13300.0
1928-05-08,13500.0
1928-05-09,14000.0
1928-05-10,14000.0
1928-05-11,14200.0
1928-05-12,13500.0
1928-05-13,12300.0
1928-05-14,12300.0
1928-05-15,11100.0
1928-05-16,11100.0
1928-05-17,10900.0
1928-05-18,10600.0
1928-05-19,11100.0
1928-05-20,10600.0
1928-05-21,9420.0
1928-05-22,10100.0
1928-05-23,9420.0
1928-05-24,8940.0
1928-05-25,9180.0
1928-05-26,8940.0
1928-05-27,8240.0
1928-05-28,7360.0
1928-05-29,6700.0
1928-05-30,7140.0
1928-05-31,6480.0
1928-06-01,5440.0
1928-06-02,5840.0
1928-06-03,6040.0
1928-06-04,5240.0
1928-06-05,4540.0
1928-06-06,5140.0
1928-06-07,5340.0
1928-06-08,5840.0
1928-06-09,5340.0
1928-06-10,5240.0
1928-06-11,5040.0
1928-06-12,4640.0
1928-06-13,3990.0
1928-06-14,4640.0
1928-06-15,5240.0
1928-06-16,5340.0
1928-06-17,4210.0
1928-06-18,3080.0
1928-06-19,2850.0
1928-06-20,3900.0
1928-06-21,4640.0
1928-06-22,4170.0
1928-06-23,3900.0
1928-06-24,3400.0
1928-06-25,2570.0
1928-06-26,2570.0
1928-06-27,3720.0
1928-06-28,4080.0
1928-06-29,3720.0
1928-06-30,3720.0
1928-07-01,3000.0
1928-07-02,2430.0
1928-07-03,2850.0
1928-07-04,3320.0
1928-07-05,2500.0
1928-07-06,2290.0
1928-07-07,3400.0
1928-07-08,3080.0
1928-07-09,3160.0
1928-07-10,2850.0
1928-07-11,4440.0
1928-07-12,3810.0
1928-07-13,3810.0
1928-07-14,3640.0
1928-07-15,3240.0
1928-07-16,1860.0
1928-07-17,3400.0
1928-07-18,3560.0
1928-07-19,2850.0
1928-07-20,3080.0
1928-07-21,3640.0
1928-07-22,3320.0
1928-07-23,2430.0
1928-07-24,2100.0
1928-07-25,3240.0
1928-07-26,3400.0
1928-07-27,3480.0
1928-07-28,3400.0
1928-07-29,2160.0
1928-07-30,1630.0
1928-07-31,1580.0
1928-08-01,3080.0
1928-08-02,3560.0
1928-08-03,3480.0
1928-08-04,3480.0
1928-08-05,2570.0
1928-08-06,1390.0
1928-08-07,1530.0
1928-08-08,2850.0
1928-08-09,3240.0
1928-08-10,3400.0
1928-08-11,3320.0
1928-08-12,2500.0
1928-08-13,1860.0
1928-08-14,1480.0
1928-08-15,2850.0
1928-08-16,2920.0
1928-08-17,2780.0
1928-08-18,2360.0
1928-08-19,2850.0
1928-08-20,1630.0
1928-08-21,1190.0
1928-08-22,3720.0
1928-08-23,3000.0
1928-08-24,2710.0
1928-08-25,2920.0
1928-08-26,2710.0
1928-08-27,1320.0
1928-08-28,1430.0
1928-08-29,2360.0
1928-08-30,2850.0
1928-08-31,2780.0
1928-09-01,2710.0
1928-09-02,2850.0
1928-09-03,1860.0
1928-09-04,848.0
1928-09-05,1490.0
1928-09-06,2920.0
1928-09-07,3080.0
1928-09-08,3080.0
1928-09-09,2780.0
1928-09-10,2500.0
1928-09-11,2500.0
1928-09-12,3480.0
1928-09-13,2850.0
1928-09-14,2780.0
1928-09-15,2850.0
1928-09-16,3160.0
1928-09-17,1920.0
1928-09-18,1440.0
1928-09-19,2640.0
1928-09-20,2920.0
1928-09-21,3160.0
1928-09-22,3560.0
1928-09-23,3240.0
1928-09-24,2710.0
1928-09-25,1100.0
1928-09-26,2920.0
1928-09-27,3640.0
1928-09-28,3320.0
1928-09-29,3080.0
1928-09-30,3080.0
1928-10-01,2360.0
1928-10-02,1340.0
1928-10-03,2850.0
1928-10-04,3560.0
1928-10-05,4440.0
1928-10-06,3990.0
1928-10-07,3810.0
1928-10-08,3000.0
1928-10-09,1580.0
1928-10-10,3080.0
1928-10-11,3080.0
1928-10-12,3240.0
1928-10-13,3160.0
1928-10-14,3240.0
1928-10-15,2710.0
1928-10-16,1860.0
1928-10-17,2780.0
1928-10-18,3080.0
1928-10-19,3080.0
1928-10-20,2920.0
1928-10-21,3320.0
1928-10-22,3080.0
1928-10-23,1700.0
1928-10-24,2800.0
1928-10-25,3000.0
1928-10-26,3200.0
1928-10-27,3300.0
1928-10-28,3500.0
1928-10-29,3400.0
1928-10-30,1900.0
1928-10-31,3500.0
1928-11-01,4100.0
1928-11-02,4100.0
1928-11-03,6100.0
1928-11-04,5300.0
1928-11-05,3800.0
1928-11-06,3200.0
1928-11-07,4600.0
1928-11-08,3800.0
1928-11-09,4500.0
1928-11-10,5500.0
1928-11-11,6000.0
1928-11-12,4900.0
1928-11-13,4100.0
1928-11-14,6040.0
1928-11-15,5640.0
1928-11-16,4350.0
1928-11-17,4640.0
1928-11-18,4080.0
1928-11-19,2780.0
1928-11-20,2850.0
1928-11-21,4440.0
1928-11-22,3900.0
1928-11-23,3900.0
1928-11-24,3900.0
1928-11-25,4080.0
1928-11-26,2850.0
1928-11-27,3080.0
1928-11-28,4080.0
1928-11-29,3990.0
1928-11-30,2500.0
1928-12-01,1920.0
1928-12-02,3640.0
1928-12-03,2430.0
1928-12-04,3080.0
1928-12-05,3900.0
1928-12-06,3320.0
1928-12-07,3240.0
1928-12-08,3400.0
1928-12-09,3080.0
1928-12-10,5840.0
1928-12-11,5640.0
1928-12-12,5240.0
1928-12-13,4640.0
1928-12-14,4440.0
1928-12-15,4260.0
1928-12-16,4170.0
1928-12-17,2850.0
1928-12-18,3000.0
1928-12-19,3640.0
1928-12-20,4080.0
1928-12-21,3990.0
1928-12-22,3900.0
1928-12-23,3810.0
1928-12-24,4260.0
1928-12-25,8460.0
1928-12-26,7360.0
1928-12-27,9660.0
1928-12-28,11100.0
1928-12-29,12500.0
1928-12-30,11400.0
1928-12-31,8560.0
1929-01-01,7280.0
1929-01-02,7280.0
1929-01-03,12100.0
1929-01-04,10500.0
1929-01-05,8340.0
1929-01-06,7280.0
1929-01-07,6480.0
1929-01-08,6120.0
1929-01-09,6300.0
1929-01-10,6120.0
1929-01-11,5940.0
1929-01-12,5770.0
1929-01-13,5770.0
1929-01-14,5430.0
1929-01-15,6120.0
1929-01-16,5600.0
1929-01-17,5430.0
1929-01-18,5600.0
1929-01-19,5940.0
1929-01-20,5770.0
1929-01-21,4750.0
1929-01-22,4590.0
1929-01-23,5430.0
1929-01-24,5090.0
1929-01-25,5260.0
1929-01-26,5430.0
1929-01-27,5430.0
1929-01-28,4750.0
1929-01-29,4040.0
1929-01-30,5090.0
1929-01-31,5260.0
1929-02-01,5940.0
1929-02-02,7080.0
1929-02-03,6680.0
1929-02-04,6480.0
1929-02-05,6300.0
1929-02-06,7080.0
1929-02-07,6680.0
1929-02-08,6300.0
1929-02-09,6480.0
1929-02-10,5940.0
1929-02-11,5770.0
1929-02-12,4430.0
1929-02-13,5430.0
1929-02-14,5430.0
1929-02-15,5600.0
1929-02-16,5430.0
1929-02-17,5430.0
1929-02-18,5260.0
1929-02-19,4270.0
1929-02-20,5260.0
1929-02-21,5430.0
1929-02-22,5430.0
1929-02-23,5260.0
1929-02-24,4040.0
1929-02-25,4750.0
1929-02-26,3590.0
1929-02-27,4430.0
1929-02-28,4920.0
1929-03-01,5090.0
1929-03-02,4750.0
1929-03-03,5430.0
1929-03-04,5260.0
1929-03-05,5090.0
1929-03-06,6100.0
1929-03-07,6200.0
1929-03-08,5900.0
1929-03-09,6100.0
1929-03-10,7300.0
1929-03-11,7000.0
1929-03-12,6880.0
1929-03-13,6120.0
1929-03-14,6300.0
1929-03-15,5600.0
1929-03-16,5770.0
1929-03-17,5600.0
1929-03-18,4920.0
1929-03-19,5090.0
1929-03-20,5940.0
1929-03-21,7900.0
1929-03-22,9220.0
1929-03-23,7680.0
1929-03-24,6680.0
1929-03-25,5600.0
1929-03-26,5770.0
1929-03-27,5600.0
1929-03-28,5600.0
1929-03-29,5940.0
1929-03-30,5770.0
1929-03-31,5430.0
1929-04-01,4750.0
1929-04-02,4750.0
1929-04-03,5090.0
1929-04-04,4920.0
1929-04-05,4920.0
1929-04-06,4750.0
1929-04-07,4590.0
1929-04-08,4920.0
1929-04-09,4430.0
1929-04-10,4430.0
1929-04-11,4430.0
1929-04-12,4270.0
1929-04-13,4270.0
1929-04-14,5090.0
1929-04-15,11000.0
1929-04-16,10500.0
1929-04-17,9440.0
1929-04-18,8120.0
1929-04-19,7900.0
1929-04-20,8560.0
1929-04-21,8120.0
1929-04-22,7900.0
1929-04-23,7280.0
1929-04-24,7680.0
1929-04-25,7680.0
1929-04-26,7480.0
1929-04-27,7680.0
1929-04-28,7900.0
1929-04-29,7680.0
1929-04-30,7080.0
1929-05-01,7680.0
1929-05-02,7900.0
1929-05-03,8560.0
1929-05-04,8340.0
1929-05-05,7900.0
1929-05-06,7080.0
1929-05-07,6300.0
1929-05-08,6480.0
1929-05-09,6680.0
1929-05-10,6880.0
1929-05-11,6680.0
1929-05-12,6880.0
1929-05-13,7280.0
1929-05-14,7280.0
1929-05-15,7480.0
1929-05-16,7680.0
1929-05-17,7900.0
1929-05-18,8400.0
1929-05-19,8700.0
1929-05-20,9000.0
1929-05-21,9100.0
1929-05-22,9400.0
1929-05-23,9400.0
1929-05-24,8600.0
1929-05-25,7400.0
1929-05-26,6600.0
1929-05-27,6000.0
1929-05-28,5400.0
1929-05-29,5900.0
1929-05-30,5900.0
1929-05-31,5700.0
1929-06-01,5300.0
1929-06-02,5500.0
1929-06-03,5200.0
1929-06-04,5000.0
1929-06-05,6500.0
1929-06-06,6500.0
1929-06-07,6000.0
1929-06-08,6000.0
1929-06-09,5900.0
1929-06-10,5400.0
1929-06-11,4900.0
1929-06-12,4800.0
1929-06-13,4800.0
1929-06-14,4800.0
1929-06-15,6000.0
1929-06-16,6000.0
1929-06-17,5300.0
1929-06-18,4800.0
1929-06-19,4600.0
1929-06-20,4600.0
1929-06-21,4500.0
1929-06-22,4700.0
1929-06-23,4500.0
1929-06-24,4300.0
1929-06-25,4100.0
1929-06-26,4200.0
1929-06-27,3810.0
1929-06-28,3810.0
1929-06-29,3660.0
1929-06-30,3380.0
1929-07-01,3110.0
1929-07-02,2400.0
1929-07-03,3310.0
1929-07-04,3380.0
1929-07-05,2980.0
1929-07-06,2260.0
1929-07-07,3240.0
1929-07-08,2590.0
1929-07-09,2590.0
1929-07-10,2980.0
1929-07-11,3040.0
1929-07-12,2980.0
1929-07-13,2920.0
1929-07-14,2780.0
1929-07-15,2260.0
1929-07-16,1810.0
1929-07-17,2920.0
1929-07-18,2850.0
1929-07-19,2850.0
1929-07-20,2850.0
1929-07-21,2720.0
1929-07-22,2060.0
1929-07-23,1420.0
1929-07-24,2720.0
1929-07-25,2660.0
1929-07-26,2660.0
1929-07-27,2660.0
1929-07-28,2460.0
1929-07-29,1940.0
1929-07-30,1220.0
1929-07-31,2520.0
1929-08-01,2400.0
1929-08-02,2260.0
1929-08-03,2200.0
1929-08-04,2200.0
1929-08-05,1860.0
1929-08-06,1180.0
1929-08-07,2260.0
1929-08-08,2330.0
1929-08-09,2260.0
1929-08-10,2260.0
1929-08-11,2200.0
1929-08-12,1810.0
1929-08-13,1100.0
1929-08-14,2160.0
1929-08-15,2200.0
1929-08-16,2200.0
1929-08-17,2260.0
1929-08-18,2200.0
1929-08-19,1910.0
1929-08-20,1100.0
1929-08-21,2330.0
1929-08-22,2460.0
1929-08-23,2660.0
1929-08-24,2780.0
1929-08-25,2660.0
1929-08-26,2070.0
1929-08-27,1120.0
1929-08-28,2400.0
1929-08-29,2660.0
1929-08-30,2460.0
1929-08-31,2520.0
1929-09-01,2720.0
1929-09-02,2200.0
1929-09-03,892.0
1929-09-04,963.0
1929-09-05,2780.0
1929-09-06,2660.0
1929-09-07,2590.0
1929-09-08,2590.0
1929-09-09,2120.0
1929-09-10,787.0
1929-09-11,1620.0
1929-09-12,2460.0
1929-09-13,2330.0
1929-09-14,2400.0
1929-09-15,2260.0
1929-09-16,1990.0
1929-09-17,940.0
1929-09-18,2200.0
1929-09-19,2200.0
1929-09-20,2260.0
1929-09-21,2200.0
1929-09-22,2200.0
1929-09-23,2150.0
1929-09-24,916.0
1929-09-25,2030.0
1929-09-26,1940.0
1929-09-27,2000.0
1929-09-28,1940.0
1929-09-29,1890.0
1929-09-30,1420.0
1929-10-01,1020.0
1929-10-02,1740.0
1929-10-03,1980.0
1929-10-04,2460.0
1929-10-05,2460.0
1929-10-06,2030.0
1929-10-07,1630.0
1929-10-08,1180.0
1929-10-09,2260.0
1929-10-10,2460.0
1929-10-11,2400.0
1929-10-12,2400.0
1929-10-13,2460.0
1929-10-14,1800.0
1929-10-15,1320.0
1929-10-16,3110.0
1929-10-17,2920.0
1929-10-18,3040.0
1929-10-19,2980.0
1929-10-20,2980.0
1929-10-21,2850.0
1929-10-22,1680.0
1929-10-23,3040.0
1929-10-24,3040.0
1929-10-25,3110.0
1929-10-26,3110.0
1929-10-27,3040.0
1929-10-28,2460.0
1929-10-29,1600.0
1929-10-30,2800.0
1929-10-31,3000.0
1929-11-01,2000.0
1929-11-02,2000.0
1929-11-03,2000.0
1929-11-04,2000.0
1929-11-05,2000.0
1929-11-06,2000.0
1929-11-07,2000.0
1929-11-08,2000.0
1929-11-09,2000.0
1929-11-10,2000.0
1929-11-11,2000.0
1929-11-12,2000.0
1929-11-13,2000.0
1929-11-14,2000.0
1929-11-15,2000.0
1929-11-16,2000.0
1929-11-17,2000.0
1929-11-18,2000.0
1929-11-19,2000.0
1929-11-20,2000.0
1929-11-21,2000.0
1929-11-22,2000.0
1929-11-23,2000.0
1929-11-24,2000.0
1929-11-25,2000.0
1929-11-26,2000.0
1929-11-27,2000.0
1929-11-28,2000.0
1929-11-29,2000.0
1929-11-30,2000.0
1929-12-01,11000.0
1929-12-02,11000.0
1929-12-03,11000.0
1929-12-04,11000.0
1929-12-05,11000.0
1929-12-06,11000.0
1929-12-07,11000.0
1929-12-08,11000.0
1929-12-09,11000.0
1929-12-10,11000.0
1929-12-11,11000.0
1929-12-12,11000.0
1929-12-13,11000.0
1929-12-14,11000.0
1929-12-15,11000.0
1929-12-16,11000.0
1929-12-17,11000.0
1929-12-18,11000.0
1929-12-19,11000.0
1929-12-20,11000.0
1929-12-21,11000.0
1929-12-22,11000.0
1929-12-23,11000.0
1929-12-24,11000.0
1929-12-25,11000.0
1929-12-26,11000.0
1929-12-27,11000.0
1929-12-28,11000.0
1929-12-29,11000.0
1929-12-30,11000.0
1929-12-31,11000.0
1930-01-01,5500.0
1930-01-02,5500.0
1930-01-03,5500.0
1930-01-04,5500.0
1930-01-05,5500.0
1930-01-06,5500.0
1930-01-07,5500.0
1930-01-08,5500.0
1930-01-09,5500.0
1930-01-10,5500.0
1930-01-11,5500.0
1930-01-12,5500.0
1930-01-13,5500.0
1930-01-14,5500.0
1930-01-15,5500.0
1930-01-16,5500.0
1930-01-17,5500.0
1930-01-18,5500.0
1930-01-19,5500.0
1930-01-20,5500.0
1930-01-21,5500.0
1930-01-22,5500.0
1930-01-23,5500.0
1930-01-24,5500.0
1930-01-25,5500.0
1930-01-26,5500.0
1930-01-27,5500.0
1930-01-28,5500.0
1930-01-29,5500.0
1930-01-30,5500.0
1930-01-31,5500.0
1930-02-01,10000.0
1930-02-02,10000.0
1930-02-03,10000.0
1930-02-04,10000.0
1930-02-05,10000.0
1930-02-06,10000.0
1930-02-07,10000.0
1930-02-08,10000.0
1930-02-09,10000.0
1930-02-10,10000.0
1930-02-11,10000.0
1930-02-12,10000.0
1930-02-13,10000.0
1930-02-14,10000.0
1930-02-15,10000.0
1930-02-16,10000.0
1930-02-17,10000.0
1930-02-18,10000.0
1930-02-19,10000.0
1930-02-20,10000.0
1930-02-21,10000.0
1930-02-22,10000.0
1930-02-23,10000.0
1930-02-24,10000.0
1930-02-25,10000.0
1930-02-26,10000.0
1930-02-27,10000.0
1930-02-28,10000.0
1930-03-01,9000.0
1930-03-02,9000.0
1930-03-03,9000.0
1930-03-04,9000.0
1930-03-05,9000.0
1930-03-06,9000.0
1930-03-07,9000.0
1930-03-08,9000.0
1930-03-09,9000.0
1930-03-10,9000.0
1930-03-11,9000.0
1930-03-12,9000.0
1930-03-13,9000.0
1930-03-14,9000.0
1930-03-15,9000.0
1930-03-16,9000.0
1930-03-17,9000.0
1930-03-18,9000.0
1930-03-19,9000.0
1930-03-20,9000.0
1930-03-21,9000.0
1930-03-22,9000.0
1930-03-23,9000.0
1930-03-24,9000.0
1930-03-25,9000.0
1930-03-26,9000.0
1930-03-27,9000.0
1930-03-28,9000.0
1930-03-29,9000.0
1930-03-30,9000.0
1930-03-31,9000.0
1930-04-01,6880.0
1930-04-02,6580.0
1930-04-03,6390.0
1930-04-04,6390.0
1930-04-05,6390.0
1930-04-06,6480.0
1930-04-07,6210.0
1930-04-08,6880.0
1930-04-09,6480.0
1930-04-10,6210.0
1930-04-11,6120.0
1930-04-12,6030.0
1930-04-13,5770.0
1930-04-14,5430.0
1930-04-15,5520.0
1930-04-16,6030.0
1930-04-17,5940.0
1930-04-18,5940.0
1930-04-19,6120.0
1930-04-20,6210.0
1930-04-21,5940.0
1930-04-22,7080.0
1930-04-23,6880.0
1930-04-24,6580.0
1930-04-25,6300.0
1930-04-26,6120.0
1930-04-27,6680.0
1930-04-28,6300.0
1930-04-29,5860.0
1930-04-30,5940.0
1930-05-01,5600.0
1930-05-02,5770.0
1930-05-03,5520.0
1930-05-04,5260.0
1930-05-05,4750.0
1930-05-06,5090.0
1930-05-07,5600.0
1930-05-08,5430.0
1930-05-09,5260.0
1930-05-10,5090.0
1930-05-11,4920.0
1930-05-12,3880.0
1930-05-13,4430.0
1930-05-14,5260.0
1930-05-15,5090.0
1930-05-16,4920.0
1930-05-17,4590.0
1930-05-18,4190.0
1930-05-19,3660.0
1930-05-20,4590.0
1930-05-21,5260.0
1930-05-22,4920.0
1930-05-23,4750.0
1930-05-24,4750.0
1930-05-25,4590.0
1930-05-26,3740.0
1930-05-27,4110.0
1930-05-28,4920.0
1930-05-29,5090.0
1930-05-30,4750.0
1930-05-31,3590.0
1930-06-01,3110.0
1930-06-02,3240.0
1930-06-03,3520.0
1930-06-04,4430.0
1930-06-05,4190.0
1930-06-06,4270.0
1930-06-07,4430.0
1930-06-08,4110.0
1930-06-09,3180.0
1930-06-10,3110.0
1930-06-11,4040.0
1930-06-12,3960.0
1930-06-13,3810.0
1930-06-14,3740.0
1930-06-15,3310.0
1930-06-16,2920.0
1930-06-17,2660.0
1930-06-18,3240.0
1930-06-19,3520.0
1930-06-20,3740.0
1930-06-21,3590.0
1930-06-22,3660.0
1930-06-23,2720.0
1930-06-24,2660.0
1930-06-25,3880.0
1930-06-26,4040.0
1930-06-27,3810.0
1930-06-28,3240.0
1930-06-29,3380.0
1930-06-30,2330.0
1930-07-01,2070.0
1930-07-02,3590.0
1930-07-03,3310.0
1930-07-04,2780.0
1930-07-05,2260.0
1930-07-06,1520.0
1930-07-07,1400.0
1930-07-08,1720.0
1930-07-09,2780.0
1930-07-10,2720.0
1930-07-11,2460.0
1930-07-12,2330.0
1930-07-13,2080.0
1930-07-14,1520.0
1930-07-15,1020.0
1930-07-16,1400.0
1930-07-17,1130.0
1930-07-18,1100.0
1930-07-19,1500.0
1930-07-20,1510.0
1930-07-21,1130.0
1930-07-22,916.0
1930-07-23,1460.0
1930-07-24,1200.0
1930-07-25,1200.0
1930-07-26,1360.0
1930-07-27,1220.0
1930-07-28,1040.0
1930-07-29,880.0
1930-07-30,1110.0
1930-07-31,1180.0
1930-08-01,1180.0
1930-08-02,1380.0
1930-08-03,1380.0
1930-08-04,1240.0
1930-08-05,832.0
1930-08-06,1370.0
1930-08-07,1250.0
1930-08-08,1240.0
1930-08-09,1100.0
1930-08-10,1160.0
1930-08-11,964.0
1930-08-12,787.0
1930-08-13,1250.0
1930-08-14,1290.0
1930-08-15,1260.0
1930-08-16,1180.0
1930-08-17,1250.0
1930-08-18,776.0
1930-08-19,820.0
1930-08-20,1110.0
1930-08-21,1370.0
1930-08-22,1280.0
1930-08-23,1180.0
1930-08-24,1230.0
1930-08-25,787.0
1930-08-26,732.0
1930-08-27,1200.0
1930-08-28,1250.0
1930-08-29,1300.0
1930-08-30,1300.0
1930-08-31,1300.0
1930-09-01,952.0
1930-09-02,776.0
1930-09-03,868.0
1930-09-04,2040.0
1930-09-05,2120.0
1930-09-06,2030.0
1930-09-07,2110.0
1930-09-08,1890.0
1930-09-09,1420.0
1930-09-10,2460.0
1930-09-11,2520.0
1930-09-12,2330.0
1930-09-13,2330.0
1930-09-14,2400.0
1930-09-15,1940.0
1930-09-16,1560.0
1930-09-17,2720.0
1930-09-18,2520.0
1930-09-19,2520.0
1930-09-20,2460.0
1930-09-21,2400.0
1930-09-22,1680.0
1930-09-23,1670.0
1930-09-24,2660.0
1930-09-25,2590.0
1930-09-26,2720.0
1930-09-27,2720.0
1930-09-28,2780.0
1930-09-29,1910.0
1930-09-30,2030.0
1930-10-01,2980.0
1930-10-02,2780.0
1930-10-03,2720.0
1930-10-04,2780.0
1930-10-05,2660.0
1930-10-06,2020.0
1930-10-07,2070.0
1930-10-08,2780.0
1930-10-09,2850.0
1930-10-10,2980.0
1930-10-11,2980.0
1930-10-12,3040.0
1930-10-13,2260.0
1930-10-14,2080.0
1930-10-15,3110.0
1930-10-16,2980.0
1930-10-17,2920.0
1930-10-18,3110.0
1930-10-19,2780.0
1930-10-20,2170.0
1930-10-21,2110.0
1930-10-22,3040.0
1930-10-23,3040.0
1930-10-24,3040.0
1930-10-25,3180.0
1930-10-26,2980.0
1930-10-27,2100.0
1930-10-28,2000.0
1930-10-29,2920.0
1930-10-30,3040.0
1930-10-31,3040.0
1930-11-01,3110.0
1930-11-02,2980.0
1930-11-03,1970.0
1930-11-04,1970.0
1930-11-05,2920.0
1930-11-06,3040.0
1930-11-07,2850.0
1930-11-08,3520.0
1930-11-09,3450.0
1930-11-10,2140.0
1930-11-11,1730.0
1930-11-12,2460.0
1930-11-13,2780.0
1930-11-14,3180.0
1930-11-15,3660.0
1930-11-16,9660.0
1930-11-17,4720.0
1930-11-18,4080.0
1930-11-19,3500.0
1930-11-20,3290.0
1930-11-21,3080.0
1930-11-22,3010.0
1930-11-23,2870.0
1930-11-24,2460.0
1930-11-25,2940.0
1930-11-26,3500.0
1930-11-27,3570.0
1930-11-28,2730.0
1930-11-29,3080.0
1930-11-30,3000.0
1930-12-01,2800.0
1930-12-02,2400.0
1930-12-03,3000.0
1930-12-04,3400.0
1930-12-05,3500.0
1930-12-06,3200.0
1930-12-07,2800.0
1930-12-08,2500.0
1930-12-09,2200.0
1930-12-10,3640.0
1930-12-11,4720.0
1930-12-12,4390.0
1930-12-13,7020.0
1930-12-14,4720.0
1930-12-15,3360.0
1930-12-16,3780.0
1930-12-17,3710.0
1930-12-18,3710.0
1930-12-19,4000.0
1930-12-20,4000.0
1930-12-21,3780.0
1930-12-22,2590.0
1930-12-23,3290.0
1930-12-24,3360.0
1930-12-25,2660.0
1930-12-26,1950.0
1930-12-27,2320.0
1930-12-28,3150.0
1930-12-29,2200.0
1930-12-30,2460.0
1930-12-31,3360.0
1931-01-01,3640.0
1931-01-02,4230.0
1931-01-03,4390.0
1931-01-04,4390.0
1931-01-05,4900.0
1931-01-06,4720.0
1931-01-07,4720.0
1931-01-08,4080.0
1931-01-09,3780.0
1931-01-10,3710.0
1931-01-11,3570.0
1931-01-12,2800.0
1931-01-13,3150.0
1931-01-14,3640.0
1931-01-15,3710.0
1931-01-16,4230.0
1931-01-17,4080.0
1931-01-18,3150.0
1931-01-19,2520.0
1931-01-20,3080.0
1931-01-21,3640.0
1931-01-22,5620.0
1931-01-23,12400.0
1931-01-24,9440.0
1931-01-25,7020.0
1931-01-26,6600.0
1931-01-27,6600.0
1931-01-28,6400.0
1931-01-29,6200.0
1931-01-30,5800.0
1931-01-31,5440.0
1931-02-01,4550.0
1931-02-02,4080.0
1931-02-03,3710.0
1931-02-04,3930.0
1931-02-05,3860.0
1931-02-06,3710.0
1931-02-07,3570.0
1931-02-08,3360.0
1931-02-09,3010.0
1931-02-10,2940.0
1931-02-11,3220.0
1931-02-12,3080.0
1931-02-13,3010.0
1931-02-14,3360.0
1931-02-15,3220.0
1931-02-16,3150.0
1931-02-17,3080.0
1931-02-18,3990.0
1931-02-19,6000.0
1931-02-20,5080.0
1931-02-21,4720.0
1931-02-22,4390.0
1931-02-23,3860.0
1931-02-24,3780.0
1931-02-25,3930.0
1931-02-26,3930.0
1931-02-27,4080.0
1931-02-28,4080.0
1931-03-01,3930.0
1931-03-02,3570.0
1931-03-03,3640.0
1931-03-04,4080.0
1931-03-05,3930.0
1931-03-06,3780.0
1931-03-07,3570.0
1931-03-08,3430.0
1931-03-09,3500.0
1931-03-10,3290.0
1931-03-11,5610.0
1931-03-12,8340.0
1931-03-13,7460.0
1931-03-14,6400.0
1931-03-15,5620.0
1931-03-16,5080.0
1931-03-17,5490.0
1931-03-18,14400.0
1931-03-19,11600.0
1931-03-20,14000.0
1931-03-21,13700.0
1931-03-22,12300.0
1931-03-23,10300.0
1931-03-24,9220.0
1931-03-25,8120.0
1931-03-26,7240.0
1931-03-27,6600.0
1931-03-28,6200.0
1931-03-29,5620.0
1931-03-30,5080.0
1931-03-31,6400.0
1931-04-01,9660.0
1931-04-02,8780.0
1931-04-03,7460.0
1931-04-04,6600.0
1931-04-05,6400.0
1931-04-06,6400.0
1931-04-07,6800.0
1931-04-08,6400.0
1931-04-09,5800.0
1931-04-10,5620.0
1931-04-11,5260.0
1931-04-12,5080.0
1931-04-13,4720.0
1931-04-14,4550.0
1931-04-15,4390.0
1931-04-16,4390.0
1931-04-17,4390.0
1931-04-18,4230.0
1931-04-19,4080.0
1931-04-20,4080.0
1931-04-21,4390.0
1931-04-22,4720.0
1931-04-23,4390.0
1931-04-24,3930.0
1931-04-25,3780.0
1931-04-26,3780.0
1931-04-27,3930.0
1931-04-28,4390.0
1931-04-29,5260.0
1931-04-30,5620.0
1931-05-01,5800.0
1931-05-02,5440.0
1931-05-03,5260.0
1931-05-04,4720.0
1931-05-05,4720.0
1931-05-06,4720.0
1931-05-07,4390.0
1931-05-08,3860.0
1931-05-09,3640.0
1931-05-10,3500.0
1931-05-11,3430.0
1931-05-12,3290.0
1931-05-13,3360.0
1931-05-14,3570.0
1931-05-15,3430.0
1931-05-16,3360.0
1931-05-17,2940.0